User: anonymous   Login
Location: Ferintosh
(52.7647°N, 112.9692°W)
Time: 15:22:25
(UTC+00:00)
Language:

Explorer 11/Cluster Stage 4 - Orbit

View from above orbital plane
View from above orbital plane
View from above satellite
View from above satellite

Ground track
Ground track

The orbit data is extracted from the following two-line orbital elements,

1   107U 61013A   24139.99424525  .00004138  00000-0  51309-3 0  9995
2   107  28.7934 353.7879 0521713 270.5590  83.5250 14.15213460168108
Epoch (UTC): 18 May 2024 23:51:42
Eccentricity: 0.0521713
inclination: 28.7934°
perigee height: 465 km
apogee height: 1218 km
right ascension of ascending node: 353.7879°
argument of perigee: 270.5590°
revolutions per day: 14.15213460
mean anomaly at epoch: 83.5250°
orbit number at epoch: 16810

The dashed part of the orbit path shows where the satellite is in the earth's shadow,  

DLR